• In Hungary
  • List of Countries
  • For 7 days
  • Water Temperature
  • Satellite Maps
  • Weather Map
  • News
  • Weather Widgets
  • user-avatar
    Login

    Hourly Weather Nashavar

    Today, 22 September, Friday

    Time Temperature Precipitation Wind Pressure Humidity
    00:00 +31°C° 0 mm 1 mps 725 mmHg 23%
    01:00 +30°C° 0 mm 1 mps 725 mmHg 24%
    02:00 +29°C° 0 mm 1 mps 725 mmHg 25%
    03:00 +29°C° 0 mm 1 mps 725 mmHg 26%
    04:00 +29°C° 0 mm 1 mps 725 mmHg 27%
    05:00 +28°C° 0 mm 1 mps 725 mmHg 28%
    06:00 +29°C° 0 mm 1 mps 726 mmHg 26%
    07:00 +30°C° 0 mm 1 mps 726 mmHg 24%
    08:00 +31°C° 0 mm 2 mps 726 mmHg 22%
    09:00 +34°C° 0 mm 2 mps 726 mmHg 19%
    10:00 +35°C° 0 mm 2 mps 726 mmHg 17%
    11:00 +36°C° 0 mm 1 mps 726 mmHg 15%
    12:00 +36°C° 0 mm 1 mps 726 mmHg 14%
    13:00 +37°C° 0 mm 1 mps 726 mmHg 14%
    14:00 +39°C° 0 mm 1 mps 725 mmHg 13%
    15:00 +39°C° 0 mm 1 mps 725 mmHg 13%
    16:00 +39°C° 0 mm 1 mps 725 mmHg 13%
    17:00 +39°C° 0 mm 1 mps 724 mmHg 13%
    18:00 +36°C° 0 mm 1 mps 724 mmHg 16%
    19:00 +35°C° 0 mm 1 mps 725 mmHg 18%
    20:00 +33°C° 0 mm 1 mps 725 mmHg 20%
    21:00 +32°C° 0 mm 1 mps 725 mmHg 21%
    22:00 +32°C° 0 mm 1 mps 725 mmHg 21%
    23:00 +31°C° 0 mm 1 mps 725 mmHg 21%

    Tomorrow, 23 September, Saturday

    Time Temperature Precipitation Wind Pressure Humidity
    00:00 +30°C° 0 mm 1 mps 725 mmHg 23%
    01:00 +30°C° 0 mm 1 mps 725 mmHg 24%
    02:00 +29°C° 0 mm 1 mps 725 mmHg 25%
    03:00 +29°C° 0 mm 1 mps 725 mmHg 25%
    04:00 +28°C° 0 mm 1 mps 726 mmHg 26%
    05:00 +28°C° 0 mm 1 mps 726 mmHg 26%
    06:00 +29°C° 0 mm 1 mps 726 mmHg 25%
    07:00 +30°C° 0 mm 1 mps 726 mmHg 23%
    08:00 +31°C° 0 mm 1 mps 727 mmHg 21%
    09:00 +32°C° 0 mm 1 mps 727 mmHg 19%
    10:00 +34°C° 0 mm 1 mps 727 mmHg 16%
    11:00 +37°C° 0 mm 2 mps 727 mmHg 14%
    12:00 +36°C° 0 mm 1 mps 727 mmHg 13%
    13:00 +37°C° 0 mm 1 mps 726 mmHg 12%
    14:00 +39°C° 0 mm 1 mps 726 mmHg 11%
    15:00 +39°C° 0 mm 1 mps 726 mmHg 11%
    16:00 +39°C° 0 mm 2 mps 725 mmHg 12%
    17:00 +39°C° 0 mm 2 mps 725 mmHg 12%
    18:00 +37°C° 0 mm 2 mps 726 mmHg 14%
    19:00 +35°C° 0 mm 1 mps 726 mmHg 16%
    20:00 +33°C° 0 mm 1 mps 726 mmHg 18%
    21:00 +32°C° 0 mm 1 mps 726 mmHg 19%
    22:00 +32°C° 0 mm 1 mps 727 mmHg 19%
    23:00 +31°C° 0 mm 1 mps 727 mmHg 20%

    Day after tomorrow, 24 September, Sunday

    Time Temperature Precipitation Wind Pressure Humidity
    00:00 +30°C° 0 mm 1 mps 727 mmHg 23%
    01:00 +29°C° 0 mm 2 mps 727 mmHg 25%
    02:00 +29°C° 0 mm 2 mps 726 mmHg 28%
    03:00 +28°C° 0 mm 1 mps 727 mmHg 32%
    04:00 +27°C° 0 mm 1 mps 727 mmHg 36%
    05:00 +27°C° 0 mm 1 mps 727 mmHg 40%
    06:00 +28°C° 0 mm 1 mps 727 mmHg 39%
    07:00 +28°C° 0 mm 1 mps 728 mmHg 38%
    08:00 +29°C° 0 mm 1 mps 728 mmHg 37%
    09:00 +31°C° 0 mm 1 mps 728 mmHg 34%
    10:00 +32°C° 0 mm 1 mps 728 mmHg 32%
    11:00 +34°C° 0 mm 2 mps 728 mmHg 29%
    12:00 +35°C° 0 mm 2 mps 728 mmHg 26%
    13:00 +36°C° 0 mm 2 mps 728 mmHg 24%
    14:00 +37°C° 0 mm 2 mps 727 mmHg 21%
    15:00 +37°C° 0 mm 2 mps 727 mmHg 21%
    16:00 +37°C° 0 mm 2 mps 727 mmHg 21%
    17:00 +37°C° 0 mm 2 mps 727 mmHg 21%
    18:00 +36°C° 0 mm 2 mps 727 mmHg 24%
    19:00 +34°C° 0 mm 2 mps 727 mmHg 27%
    20:00 +32°C° 0 mm 1 mps 728 mmHg 31%
    21:00 +31°C° 0 mm 1 mps 727 mmHg 31%
    22:00 +31°C° 0 mm 1 mps 727 mmHg 32%
    23:00 +30°C° 0 mm 1 mps 727 mmHg 33%

    25 September, Monday

    Time Temperature Precipitation Wind Pressure Humidity
    00:00 +30°C° 0 mm 1 mps 727 mmHg 34%
    01:00 +29°C° 0 mm 1 mps 727 mmHg 34%
    02:00 +29°C° 0 mm 1 mps 726 mmHg 35%
    03:00 +28°C° 0 mm 1 mps 726 mmHg 35%
    04:00 +28°C° 0 mm 1 mps 726 mmHg 35%
    05:00 +27°C° 0 mm 1 mps 726 mmHg 35%
    06:00 +28°C° 0 mm 1 mps 726 mmHg 32%
    07:00 +29°C° 0 mm 1 mps 727 mmHg 29%
    08:00 +30°C° 0 mm 1 mps 727 mmHg 25%
    09:00 +32°C° 0 mm 1 mps 727 mmHg 22%
    10:00 +33°C° 0 mm 1 mps 727 mmHg 18%
    11:00 +36°C° 0 mm 2 mps 727 mmHg 15%
    12:00 +35°C° 0 mm 1 mps 727 mmHg 14%
    13:00 +36°C° 0 mm 1 mps 726 mmHg 12%
    14:00 +37°C° 0 mm 1 mps 726 mmHg 11%
    15:00 +37°C° 0 mm 1 mps 725 mmHg 12%
    16:00 +37°C° 0 mm 1 mps 725 mmHg 12%
    17:00 +38°C° 0 mm 2 mps 725 mmHg 13%
    18:00 +35°C° 0 mm 1 mps 726 mmHg 15%
    19:00 +34°C° 0 mm 1 mps 726 mmHg 17%
    20:00 +32°C° 0 mm 1 mps 726 mmHg 20%
    21:00 +32°C° 0 mm 1 mps 726 mmHg 20%
    22:00 +31°C° 0 mm 1 mps 726 mmHg 20%
    23:00 +30°C° 0 mm 1 mps 726 mmHg 21%

    26 September, Tuesday

    Time Temperature Precipitation Wind Pressure Humidity
    00:00 +30°C° 0 mm 1 mps 726 mmHg 21%
    01:00 +29°C° 0 mm 1 mps 726 mmHg 22%
    02:00 +29°C° 0 mm 1 mps 726 mmHg 23%
    03:00 +28°C° 0 mm 1 mps 726 mmHg 23%
    04:00 +28°C° 0 mm 1 mps 726 mmHg 23%
    05:00 +27°C° 0 mm 1 mps 726 mmHg 23%
    06:00 +28°C° 0 mm 1 mps 726 mmHg 21%
    07:00 +29°C° 0 mm 1 mps 727 mmHg 19%
    08:00 +30°C° 0 mm 1 mps 727 mmHg 18%
    09:00 +32°C° 0 mm 1 mps 727 mmHg 16%
    10:00 +34°C° 0 mm 1 mps 727 mmHg 13%
    11:00 +35°C° 0 mm 1 mps 728 mmHg 11%
    12:00 +36°C° 0 mm 1 mps 727 mmHg 11%
    13:00 +37°C° 0 mm 1 mps 727 mmHg 10%
    14:00 +39°C° 0 mm 1 mps 726 mmHg 10%
    15:00 +39°C° 0 mm 2 mps 726 mmHg 10%
    16:00 +38°C° 0 mm 2 mps 726 mmHg 11%
    17:00 +38°C° 0 mm 2 mps 726 mmHg 12%
    18:00 +37°C° 0 mm 2 mps 727 mmHg 14%
    19:00 +34°C° 0 mm 1 mps 727 mmHg 15%
    20:00 +32°C° 0 mm 1 mps 727 mmHg 17%
    21:00 +32°C° 0 mm 1 mps 728 mmHg 18%
    22:00 +31°C° 0 mm 1 mps 728 mmHg 18%
    23:00 +30°C° 0 mm 1 mps 728 mmHg 18%

    27 September, Wednesday

    Time Temperature Precipitation Wind Pressure Humidity
    00:00 +30°C° 0 mm 1 mps 728 mmHg 19%
    01:00 +29°C° 0 mm 1 mps 727 mmHg 20%
    02:00 +29°C° 0 mm 1 mps 727 mmHg 20%
    03:00 +28°C° 0 mm 1 mps 727 mmHg 20%
    04:00 +28°C° 0 mm 1 mps 727 mmHg 21%
    05:00 +28°C° 0 mm 1 mps 727 mmHg 21%
    06:00 +29°C° 0 mm 1 mps 728 mmHg 20%
    07:00 +30°C° 0 mm 1 mps 728 mmHg 19%
    08:00 +31°C° 0 mm 1 mps 729 mmHg 18%
    09:00 +32°C° 0 mm 1 mps 729 mmHg 16%
    10:00 +34°C° 0 mm 1 mps 729 mmHg 14%
    11:00 +36°C° 0 mm 2 mps 729 mmHg 13%
    12:00 +37°C° 0 mm 2 mps 728 mmHg 12%
    13:00 +37°C° 0 mm 1 mps 728 mmHg 11%
    14:00 +39°C° 0 mm 1 mps 727 mmHg 11%
    15:00 +39°C° 0 mm 1 mps 727 mmHg 11%
    16:00 +39°C° 0 mm 1 mps 727 mmHg 12%
    17:00 +39°C° 0 mm 1 mps 727 mmHg 12%
    18:00 +36°C° 0 mm 1 mps 727 mmHg 14%
    19:00 +34°C° 0 mm 1 mps 728 mmHg 17%
    20:00 +33°C° 0 mm 1 mps 728 mmHg 19%
    21:00 +32°C° 0 mm 1 mps 728 mmHg 19%
    22:00 +31°C° 0 mm 1 mps 728 mmHg 19%
    23:00 +31°C° 0 mm 1 mps 728 mmHg 18%
    Show more